[[{"header":{"parameterUnit":"m.s-1","parameterCategory":1,"la1":30.2991,"la2":30.254,"lo1":-89.0895,"lo2":-89.0444,"dy":0.0017,"dx":0.0017,"nx":28,"ny":28,"refTime":"2025-06-04T09:00:00:Z","depth":0,"parameterNumber":2,"parameterNumberName":"U-component_of_WINDS"},"data":[0,0,0,0,0,0,0,0,0,0,0,0,0,0,0,0,0,0,0,0,0,0,0,0,0,0,0,0,0,0,0,0,0,0,0,0,0,0,0,0,0,0,0,0,0,0,0,0,0,0,0,0,0,0,0,0,0,0,0.1626,0.1627,0,0.1679,0.1679,0.168,0.1667,0.1666,0.1665,0.1664,0.1721,0.1723,0.1725,0,0,0,0,0,0,0,0,0,0,0,0,0,0.1517,0.1519,0.1626,0.1627,0.1627,0.1679,0.1679,0.168,0.1667,0.1666,0.1665,0.1664,0.172,0.1723,0.1726,0,0,0,0,0,0,0,0,0,0,0,0,0,0.1566,0.1519,0.1626,0.1627,0.1628,0.1679,0.1679,0.168,0.1668,0.1666,0.1665,0.1663,0.1719,0.1722,0.1726,0.178,0,0,0.1737,0.1739,0,0,0,0,0,0,0,0,0.1563,0.157,0.1626,0.1627,0.1628,0.1665,0.1661,0.1714,0.1668,0.1653,0.1664,0.1662,0.1703,0.1708,0.1722,0.1782,0.1785,0.1738,0.174,0.1742,0.1743,0,0,0,0,0,0,0,0.156,0.1568,0.1647,0.1627,0.1628,0.1626,0.1631,0.1671,0.1686,0.1654,0.1653,0.1659,0.1704,0.1718,0.1723,0.1786,0.1738,0.1741,0.1743,0.1745,0.1893,0.1895,0,0,0,0,0,0,0.1556,0.1565,0.1645,0.1649,0.1591,0.1629,0.1635,0.1655,0.1686,0.1689,0.1661,0.1659,0.1713,0.1719,0.1725,0.179,0.1741,0.1745,0.1747,0.1891,0.1893,0.1895,0,0,0,0,0,0,0.1553,0.1563,0.1643,0.1607,0.1617,0.1632,0.1655,0.1656,0.1671,0.1691,0.1693,0.1673,0.1712,0.172,0.1766,0.1791,0.1747,0.175,0.1889,0.1892,0.1894,0.1919,0,0,0,0,0,0,0.155,0.1562,0.1582,0.1607,0.1619,0.1683,0.1656,0.1659,0.1677,0.1675,0.1703,0.1706,0.1711,0.1761,0.177,0.1796,0.1753,0.1887,0.189,0.1893,0.1916,0.1923,0.1928,0,0,0,0,0,0.1546,0.1588,0.1583,0.1593,0.1644,0.1684,0.1691,0.1695,0.1679,0.17,0.1712,0.1705,0.1787,0.1765,0.1776,0.1803,0.1885,0.1889,0.1893,0.1914,0.1921,0.1928,0,0,0,0,0,0,0.1566,0.1591,0.1586,0.1637,0.1658,0.1682,0.1708,0.1703,0.1731,0.1728,0.1733,0.1739,0.1786,0.1799,0.1775,0.1857,0.1834,0.184,0.1846,0.1854,0.1859,0.1855,0.1756,0,0,0,0,0,0.1576,0.1606,0.1627,0.1669,0.168,0.1692,0.171,0.1712,0.1735,0.1744,0.176,0.1783,0.1814,0.1835,0.1864,0.1918,0.1924,0.1942,0.1948,0.1953,0.1958,0.1987,0.1996,0.1908,0.1908,0.1908,0,0,0.1598,0.1615,0.1634,0.1674,0.169,0.1722,0.17,0.1735,0.1758,0.1749,0.1794,0.1807,0.1833,0.1883,0.1906,0.1895,0.1983,0.1957,0.1961,0.1964,0.1992,0.2001,0.2008,0.1911,0.191,0.191,0,0,0.1653,0.1669,0.1706,0.1723,0.1749,0.1756,0.1765,0.179,0.1797,0.1842,0.1836,0.1865,0.1918,0.1937,0.1954,0.2016,0.201,0.2025,0.2055,0.2084,0.2091,0.2097,0.2119,0.2127,0.203,0.2031,0.2031,0,0.1676,0.1723,0.1726,0.176,0.1778,0.1771,0.1809,0.1826,0.186,0.1873,0.186,0.1927,0.1944,0.1999,0.2014,0.2028,0.2039,0.2022,0.209,0.2096,0.2102,0.2123,0.2131,0.2032,0.2032,0.2032,0.2032,0,0.175,0.1783,0.181,0.1842,0.1863,0.19,0.1909,0.193,0.193,0.1939,0.1985,0.2005,0.2038,0.2052,0.2052,0.2107,0.2099,0.2088,0.2066,0.2112,0.2132,0.214,0.2035,0.2034,0.2034,0.2033,0,0,0.1819,0.1853,0.1863,0.1877,0.1905,0.193,0.1967,0.1999,0.2017,0.2041,0.2072,0.2117,0.2106,0.2125,0.2128,0.2153,0.2201,0.2139,0.214,0.215,0.2263,0.2271,0.228,0.2198,0.2199,0.22,0.2261,0,0.1877,0.1939,0.1943,0.2001,0.2031,0.2024,0.2056,0.2077,0.2086,0.2114,0.2125,0.2157,0.2141,0.2152,0.2177,0.219,0.2224,0.2186,0.2227,0.2228,0.2221,0.2291,0.23,0.2356,0.2269,0.227,0.2271,0,0.1952,0.1977,0.2037,0.2061,0.2074,0.2102,0.2131,0.2158,0.2181,0.2187,0.2208,0.2207,0.2245,0.2221,0.2273,0.2247,0.2264,0.2273,0.2276,0.228,0.2252,0.2297,0.2374,0.2382,0.2283,0.2282,0.2281,0,0.1996,0.2046,0.2088,0.2101,0.2129,0.2149,0.2162,0.2184,0.2203,0.2229,0.2242,0.2272,0.2289,0.2313,0.2321,0.2303,0.2373,0.235,0.2379,0.2379,0.2395,0.2394,0.2475,0.2406,0.2406,0.2405,0.2405,0,0.206,0.2097,0.2108,0.2134,0.2175,0.218,0.2221,0.2233,0.2252,0.2281,0.2278,0.2305,0.2313,0.2342,0.2348,0.2391,0.2399,0.2405,0.2406,0.2405,0.2404,0.2416,0.2413,0.2408,0.2407,0.2407,0.2406,0,0.2116,0.2125,0.2171,0.2194,0.22,0.223,0.225,0.2275,0.2284,0.2321,0.2329,0.2344,0.2378,0.2388,0.2429,0.2433,0.2483,0.2481,0.2475,0.2475,0.2504,0.2501,0.2596,0.2609,0.2531,0.2532,0.2532,0,0.2156,0.2184,0.221,0.2229,0.2242,0.2272,0.2291,0.2297,0.2317,0.2346,0.2369,0.2402,0.2428,0.2483,0.2498,0.2529,0.2528,0.2559,0.2533,0.2531,0.2529,0.2527,0.253,0.2564,0.2565,0.2565,0.2566,0,0.2226,0.2229,0.2257,0.2286,0.2309,0.2332,0.2354,0.237,0.2379,0.2402,0.2436,0.2457,0.2498,0.2532,0.2563,0.2577,0.2574,0.2574,0.2583,0.2582,0.2577,0.258,0.2489,0.2572,0.2571,0.2571,0.2571,0.257,0.2276,0.2301,0.2322,0.2353,0.237,0.2392,0.2416,0.2428,0.2457,0.249,0.2492,0.2529,0.2553,0.2595,0.2611,0.264,0.2631,0.2643,0.2647,0.265,0.2652,0.2573,0.2646,0.2646,0.2646,0.2646,0.2646,0,0.2346,0.2359,0.2388,0.2419,0.2443,0.2436,0.2461,0.2482,0.2514,0.2536,0.2562,0.2602,0.2634,0.2651,0.2684,0.2704,0.2703,0.2712,0.2711,0.2714,0.2658,0.2648,0.2713,0.2713,0.2713,0.2713,0.2712,0.2712,0.2385,0.2426,0.2432,0.2482,0.2496,0.2531,0.2546,0.2566,0.2583,0.2627,0.2653,0.2664,0.2684,0.2718,0.2748,0.2752,0.2764,0.2775,0.2778,0.2725,0.2718,0.2712,0.2702,0.2777,0.2777,0.2832,0.2832,0.2833]},{"header":{"parameterUnit":"m.s-1","parameterCategory":1,"la1":30.2991,"la2":30.254,"lo1":-89.0895,"lo2":-89.0444,"dy":0.0017,"dx":0.0017,"nx":28,"ny":28,"refTime":"2025-06-04T09:00:00:Z","depth":0,"parameterNumber":3,"parameterNumberName":"V-component_of_WINDS"},"data":[0,0,0,0,0,0,0,0,0,0,0,0,0,0,0,0,0,0,0,0,0,0,0,0,0,0,0,0,0,0,0,0,0,0,0,0,0,0,0,0,0,0,0,0,0,0,0,0,0,0,0,0,0,0,0,0,0,0,3.1119,3.112,0,3.1202,3.1203,3.1204,3.1164,3.1161,3.1159,3.1157,3.1238,3.1242,3.1246,0,0,0,0,0,0,0,0,0,0,0,0,0,3.0922,3.0926,3.1119,3.112,3.1122,3.1202,3.1203,3.1204,3.1164,3.1161,3.1159,3.1156,3.1237,3.1242,3.1247,0,0,0,0,0,0,0,0,0,0,0,0,0,3.1006,3.0927,3.1119,3.1111,3.1111,3.1202,3.1203,3.1205,3.1165,3.1161,3.1158,3.1155,3.1235,3.1241,3.1247,3.1349,0,0,3.1266,3.1269,0,0,0,0,0,0,0,0,3.1002,3.1014,3.1111,3.1112,3.1112,3.1169,3.1163,3.1253,3.1165,3.1144,3.1157,3.1154,3.1218,3.1225,3.1247,3.1353,3.1357,3.1267,3.1271,3.1273,3.1275,0,0,0,0,0,0,0,3.0996,3.101,3.1152,3.1113,3.1113,3.1102,3.111,3.118,3.1198,3.1146,3.1143,3.1154,3.1217,3.1242,3.1249,3.1358,3.1267,3.1272,3.1276,3.1278,3.1549,3.1552,0,0,0,0,0,0,3.0991,3.1005,3.1149,3.1154,3.1048,3.1108,3.1118,3.1154,3.1197,3.12,3.1156,3.1151,3.1233,3.1242,3.1252,3.1372,3.1273,3.1279,3.1283,3.1546,3.155,3.1554,0,0,0,0,0,0,3.0987,3.1004,3.1146,3.1079,3.1096,3.1115,3.1156,3.1157,3.1182,3.1205,3.1207,3.1178,3.123,3.1243,3.1325,3.1375,3.1282,3.1287,3.1542,3.1547,3.1552,3.1616,0,0,0,0,0,0,3.0981,3.1003,3.1043,3.108,3.11,3.122,3.1159,3.1161,3.1193,3.1188,3.1226,3.1229,3.1229,3.1316,3.1331,3.1382,3.1292,3.1537,3.1544,3.155,3.1609,3.1623,3.1634,0,0,0,0,0,3.0974,3.1057,3.1045,3.1063,3.1151,3.1223,3.1234,3.1233,3.1197,3.1237,3.1251,3.1228,3.1367,3.1325,3.1342,3.1395,3.1534,3.1542,3.155,3.1604,3.162,3.1634,0,0,0,0,0,0,3.1024,3.1062,3.1049,3.1147,3.1182,3.1216,3.1266,3.125,3.1295,3.1288,3.1283,3.1292,3.1377,3.1394,3.1347,3.1494,3.1445,3.1456,3.148,3.1496,3.1508,3.1501,3.1297,0,0,0,0,0,3.1047,3.1103,3.1133,3.1216,3.1235,3.1248,3.1279,3.1275,3.131,3.1325,3.1345,3.1379,3.143,3.1464,3.1513,3.1612,3.1618,3.1656,3.1669,3.1679,3.1688,3.174,3.1756,3.1579,3.1579,3.1579,0,0,3.1094,3.1121,3.1157,3.1227,3.1254,3.1311,3.126,3.1323,3.1364,3.1334,3.1413,3.1429,3.1466,3.1557,3.1598,3.1574,3.1739,3.1689,3.1696,3.1701,3.175,3.1766,3.1781,3.1585,3.1584,3.1583,0,0,3.1208,3.1235,3.1307,3.1335,3.1376,3.1384,3.1401,3.1438,3.1447,3.1527,3.1504,3.1553,3.1642,3.1669,3.1695,3.1819,3.1798,3.1834,3.1898,3.1949,3.1962,3.1975,3.2017,3.2033,3.1844,3.1844,3.1844,0,3.126,3.1347,3.1346,3.141,3.1441,3.1417,3.1488,3.1515,3.1569,3.159,3.1563,3.1673,3.1697,3.1792,3.1822,3.1845,3.1862,3.1829,3.1961,3.1973,3.1985,3.2025,3.2041,3.1848,3.1848,3.1847,3.1847,0,3.1408,3.1468,3.1521,3.1576,3.1612,3.168,3.1687,3.1724,3.1717,3.1727,3.1807,3.1835,3.1888,3.191,3.1904,3.2005,3.1988,3.1961,3.1911,3.2006,3.2043,3.2059,3.1854,3.1853,3.1851,3.185,0,0,3.1556,3.1609,3.1628,3.1651,3.1695,3.1741,3.1806,3.1859,3.189,3.1928,3.1982,3.2058,3.2032,3.2061,3.2057,3.2102,3.2196,3.2069,3.207,3.209,3.2307,3.2326,3.2344,3.2183,3.2186,3.2188,3.2303,0,3.1672,3.1788,3.1789,3.1895,3.195,3.1927,3.1984,3.2016,3.2027,3.2074,3.2085,3.2138,3.2102,3.2119,3.2162,3.2175,3.2239,3.2167,3.2231,3.2233,3.2221,3.2364,3.2385,3.2492,3.2318,3.2321,3.2322,0,3.1823,3.1867,3.1979,3.2014,3.2036,3.2088,3.2135,3.2181,3.2216,3.222,3.2253,3.2242,3.2307,3.2256,3.2344,3.2295,3.2321,3.2331,3.2335,3.234,3.2283,3.2371,3.2526,3.2542,3.2346,3.2344,3.2342,0,3.1917,3.2004,3.2082,3.2104,3.2146,3.2182,3.2202,3.2234,3.2265,3.2306,3.2326,3.2374,3.24,3.2437,3.2438,3.2401,3.2527,3.2476,3.2531,3.2531,3.2557,3.2555,3.2717,3.2577,3.2576,3.2576,3.2576,0,3.2046,3.2115,3.2125,3.2173,3.2249,3.2248,3.2323,3.2339,3.2367,3.2417,3.24,3.2446,3.2446,3.2493,3.2494,3.2566,3.2578,3.2582,3.2582,3.2583,3.2582,3.2599,3.2591,3.258,3.2579,3.2578,3.2578,0,3.2163,3.2174,3.2257,3.229,3.23,3.2355,3.2383,3.2427,3.2437,3.2499,3.2513,3.2528,3.2582,3.2587,3.265,3.2651,3.2737,3.2729,3.2725,3.2724,3.2777,3.2772,3.2954,3.2977,3.2823,3.2825,3.2826,0,3.2244,3.2297,3.2336,3.2369,3.239,3.2442,3.2474,3.2475,3.2509,3.2552,3.2591,3.2643,3.2685,3.2772,3.2787,3.2834,3.2826,3.2887,3.2833,3.2832,3.2825,3.2821,3.2826,3.2897,3.2899,3.29,3.2901,0,3.2386,3.2388,3.2436,3.2485,3.2523,3.2562,3.2598,3.2625,3.263,3.2668,3.2723,3.2756,3.282,3.2871,3.2918,3.2935,3.2919,3.2918,3.2933,3.2934,3.2929,3.2931,3.2752,3.2914,3.2912,3.2911,3.2911,3.291,3.2487,3.2532,3.2566,3.2619,3.2646,3.268,3.2723,3.2739,3.2785,3.2838,3.2835,3.2896,3.2928,3.2988,3.301,3.3056,3.3035,3.3057,3.3062,3.3068,3.3072,3.2923,3.3064,3.3064,3.3064,3.3063,3.3063,0,3.2626,3.2647,3.2696,3.2747,3.2788,3.277,3.2809,3.2844,3.2898,3.293,3.2971,3.3034,3.3084,3.3103,3.3151,3.3184,3.3178,3.3197,3.3193,3.3197,3.3089,3.307,3.3201,3.3201,3.3201,3.3201,3.3201,3.3201,3.2703,3.2778,3.2785,3.2872,3.2892,3.2952,3.2976,3.3006,3.3031,3.3103,3.3144,3.3157,3.3183,3.3233,3.3277,3.3281,3.3298,3.3321,3.3321,3.3219,3.3205,3.3192,3.3175,3.3325,3.3325,3.3426,3.3427,3.3427]}]]